[[{"header":{"parameterUnit":"m.s-1","parameterCategory":1,"la1":30.2991,"la2":30.254,"lo1":-89.0895,"lo2":-89.0444,"dy":0.0017,"dx":0.0017,"nx":28,"ny":28,"refTime":"2025-09-04T03:00:00:Z","depth":0,"parameterNumber":2,"parameterNumberName":"U-component_of_WINDS"},"data":[0,0,0,0,0,0,0,0,0,0,0,0,0,0,0,0,0,0,0,0,0,0,0,0,0,0,0,0,0,0,0,0,0,0,0,0,0,0,0,0,0,0,0,0,0,0,0,0,0,0,0,0,0,0,0,0,0,0,1.5773,1.5773,0,1.5737,1.5736,1.5736,1.5696,1.5695,1.5695,1.5694,1.5656,1.5655,1.5655,0,0,0,0,0,0,0,0,0,0,0,0,0,1.5807,1.5806,1.5773,1.5773,1.5773,1.5737,1.5736,1.5736,1.5696,1.5695,1.5695,1.5694,1.5656,1.5655,1.5654,0,0,0,0,0,0,0,0,0,0,0,0,0,1.5783,1.5806,1.5774,1.5748,1.5746,1.5737,1.5736,1.5735,1.5696,1.5695,1.5695,1.5694,1.5656,1.5655,1.5654,1.5667,0,0,1.5652,1.5652,0,0,0,0,0,0,0,0,1.5785,1.5782,1.5753,1.575,1.5747,1.572,1.5734,1.5712,1.5696,1.5715,1.5694,1.5693,1.5678,1.5675,1.567,1.5665,1.5663,1.5652,1.5652,1.5651,1.5651,0,0,0,0,0,0,0,1.5786,1.5783,1.5759,1.5752,1.5749,1.5738,1.5734,1.5729,1.5701,1.5713,1.571,1.5707,1.5676,1.5671,1.5669,1.5663,1.5652,1.5651,1.5651,1.5651,1.5662,1.5662,0,0,0,0,0,0,1.5792,1.5785,1.576,1.5758,1.5764,1.5738,1.5733,1.573,1.5701,1.5696,1.5707,1.5705,1.5672,1.567,1.5667,1.5677,1.5651,1.5651,1.565,1.5661,1.5662,1.5663,0,0,0,0,0,0,1.5793,1.579,1.5761,1.5771,1.5766,1.5739,1.5735,1.5729,1.5724,1.5697,1.5692,1.5707,1.5672,1.5668,1.5666,1.5675,1.565,1.5649,1.566,1.5661,1.5662,1.5698,0,0,0,0,0,0,1.5794,1.5791,1.5796,1.5771,1.5766,1.5762,1.5735,1.5729,1.5723,1.5719,1.5695,1.5691,1.5671,1.5668,1.5666,1.5674,1.5649,1.5659,1.5661,1.5662,1.5696,1.5701,1.5704,0,0,0,0,0,1.5795,1.5808,1.5797,1.5794,1.5772,1.5763,1.576,1.5737,1.5724,1.5728,1.571,1.5691,1.5675,1.5668,1.5665,1.5673,1.5658,1.566,1.5662,1.5694,1.57,1.5704,0,0,0,0,0,0,1.5835,1.5805,1.5791,1.5796,1.5782,1.5756,1.5761,1.5744,1.5733,1.573,1.5702,1.5697,1.5697,1.5685,1.5678,1.5682,1.5664,1.5665,1.5689,1.5694,1.5698,1.57,1.5648,0,0,0,0,0,1.5845,1.5841,1.5814,1.5821,1.5814,1.5789,1.5784,1.5768,1.5752,1.5746,1.5728,1.5713,1.5704,1.5699,1.5689,1.5695,1.5687,1.5698,1.5703,1.5706,1.5707,1.5706,1.571,1.5668,1.5668,1.5668,0,0,1.5864,1.5847,1.5846,1.5828,1.5816,1.581,1.5784,1.5781,1.5776,1.5745,1.5741,1.5728,1.5709,1.571,1.5709,1.57,1.5717,1.5708,1.5711,1.571,1.5708,1.5712,1.5715,1.5669,1.5669,1.5669,0,0,1.5896,1.5884,1.5887,1.5874,1.5855,1.5837,1.5838,1.5814,1.5803,1.5799,1.5775,1.5769,1.5755,1.5741,1.5733,1.5757,1.5739,1.5755,1.5776,1.5775,1.5778,1.5781,1.5787,1.579,1.5756,1.5756,1.5757,0,1.5922,1.5915,1.589,1.5888,1.5879,1.5851,1.5852,1.5841,1.582,1.5814,1.5804,1.5784,1.5769,1.5765,1.5771,1.5766,1.5764,1.5757,1.578,1.5782,1.5784,1.579,1.5793,1.5758,1.5758,1.5758,1.5758,0,1.5946,1.5941,1.5946,1.5925,1.5918,1.5918,1.5892,1.5887,1.5871,1.5854,1.5848,1.583,1.5815,1.5813,1.5797,1.5806,1.58,1.5785,1.5766,1.5791,1.5795,1.5797,1.5761,1.5761,1.576,1.5759,0,0,1.6003,1.5967,1.5969,1.5958,1.5934,1.5929,1.5926,1.5911,1.5907,1.5893,1.5888,1.5876,1.5861,1.5851,1.5834,1.5833,1.585,1.5818,1.5817,1.5823,1.5855,1.5865,1.5869,1.5838,1.5839,1.5839,1.5856,0,1.6029,1.6022,1.6,1.6,1.5993,1.5965,1.5962,1.5946,1.593,1.5921,1.5903,1.5894,1.5877,1.587,1.5868,1.5849,1.5856,1.5848,1.5832,1.5832,1.5836,1.5871,1.5883,1.59,1.5858,1.5859,1.5859,0,1.6058,1.6045,1.6045,1.6018,1.6014,1.6013,1.5996,1.5988,1.5969,1.5957,1.5945,1.5925,1.5918,1.5902,1.5892,1.5886,1.5878,1.5867,1.5867,1.5864,1.5846,1.5867,1.5905,1.5907,1.5862,1.5862,1.5861,0,1.6096,1.6079,1.6075,1.6067,1.6037,1.6036,1.6023,1.6003,1.5994,1.5979,1.5973,1.5958,1.5949,1.5937,1.5912,1.5903,1.5904,1.5886,1.5892,1.5892,1.5892,1.5892,1.5928,1.5891,1.5891,1.589,1.589,0,1.6126,1.6127,1.6091,1.6089,1.6088,1.6061,1.606,1.6044,1.6026,1.6019,1.5994,1.5988,1.5957,1.5946,1.5927,1.592,1.5917,1.5906,1.59,1.5907,1.5908,1.5901,1.5898,1.5891,1.5891,1.5891,1.5891,0,1.6168,1.6145,1.6139,1.611,1.6103,1.6103,1.6078,1.6074,1.6056,1.6047,1.6043,1.6015,1.6001,1.5976,1.5955,1.5942,1.5938,1.593,1.5945,1.5941,1.5948,1.5947,1.5978,1.598,1.5944,1.5944,1.5945,0,1.6188,1.6187,1.6158,1.6152,1.614,1.613,1.6121,1.6094,1.6086,1.6062,1.606,1.6045,1.6031,1.601,1.5986,1.597,1.596,1.5972,1.5957,1.5963,1.5957,1.5957,1.5956,1.5975,1.5976,1.5976,1.5976,0,1.6225,1.6213,1.6201,1.6185,1.6175,1.6161,1.6145,1.6141,1.611,1.6102,1.6087,1.6076,1.6054,1.6038,1.6018,1.6003,1.5984,1.5981,1.5981,1.5987,1.5995,1.5989,1.5952,1.598,1.598,1.598,1.5979,1.5979,1.6255,1.6252,1.623,1.6217,1.6203,1.6188,1.6182,1.6163,1.6151,1.6131,1.6116,1.6102,1.608,1.6051,1.6037,1.6025,1.6016,1.6017,1.6017,1.6017,1.6019,1.5998,1.6021,1.6021,1.6021,1.6021,1.6021,0,1.6288,1.6273,1.6261,1.624,1.6229,1.6213,1.6194,1.6186,1.6174,1.6156,1.6142,1.6124,1.6108,1.6083,1.6064,1.6059,1.6049,1.6055,1.6054,1.6051,1.6029,1.603,1.6063,1.6063,1.6063,1.6063,1.6063,1.6063,1.6304,1.6297,1.6283,1.6268,1.6252,1.6239,1.6229,1.6215,1.62,1.6181,1.6168,1.6152,1.613,1.6109,1.6093,1.6085,1.6079,1.6087,1.6077,1.6056,1.6052,1.6049,1.6049,1.6086,1.6086,1.6099,1.6099,1.6099]},{"header":{"parameterUnit":"m.s-1","parameterCategory":1,"la1":30.2991,"la2":30.254,"lo1":-89.0895,"lo2":-89.0444,"dy":0.0017,"dx":0.0017,"nx":28,"ny":28,"refTime":"2025-09-04T03:00:00:Z","depth":0,"parameterNumber":3,"parameterNumberName":"V-component_of_WINDS"},"data":[0,0,0,0,0,0,0,0,0,0,0,0,0,0,0,0,0,0,0,0,0,0,0,0,0,0,0,0,0,0,0,0,0,0,0,0,0,0,0,0,0,0,0,0,0,0,0,0,0,0,0,0,0,0,0,0,0,0,1.4346,1.4346,0,1.4396,1.4397,1.4397,1.4387,1.4386,1.4385,1.4384,1.4434,1.4436,1.4439,0,0,0,0,0,0,0,0,0,0,0,0,0,1.4237,1.4239,1.4346,1.4346,1.4347,1.4396,1.4397,1.4397,1.4387,1.4386,1.4385,1.4384,1.4434,1.4436,1.4439,0,0,0,0,0,0,0,0,0,0,0,0,0,1.4285,1.424,1.4345,1.4348,1.4348,1.4396,1.4397,1.4398,1.4387,1.4386,1.4384,1.4383,1.4433,1.4436,1.4439,1.4487,0,0,1.4449,1.4451,0,0,0,0,0,0,0,0,1.4283,1.4289,1.4347,1.4348,1.4348,1.4384,1.4377,1.4428,1.4387,1.4372,1.4384,1.4382,1.4418,1.4423,1.4435,1.449,1.4492,1.445,1.4452,1.4453,1.4454,0,0,0,0,0,0,0,1.4279,1.4287,1.4365,1.4347,1.4349,1.4345,1.435,1.4386,1.4403,1.4374,1.4373,1.4379,1.4419,1.4432,1.4436,1.4493,1.4449,1.4452,1.4454,1.4456,1.4586,1.4587,0,0,0,0,0,0,1.4276,1.4284,1.4364,1.4367,1.4311,1.4348,1.4354,1.4374,1.4402,1.4405,1.438,1.4378,1.4427,1.4433,1.4438,1.4495,1.4453,1.4456,1.4458,1.4584,1.4586,1.4588,0,0,0,0,0,0,1.4273,1.4283,1.4362,1.4326,1.4335,1.4351,1.4374,1.4375,1.4389,1.4407,1.441,1.4391,1.4426,1.4434,1.4475,1.4496,1.4458,1.4461,1.4583,1.4585,1.4587,1.4609,0,0,0,0,0,0,1.427,1.4282,1.4301,1.4326,1.4337,1.4399,1.4375,1.4377,1.4395,1.4393,1.4418,1.4421,1.4426,1.447,1.4478,1.45,1.4463,1.4581,1.4584,1.4586,1.4606,1.4612,1.4616,0,0,0,0,0,1.4266,1.4306,1.4303,1.4312,1.4362,1.44,1.4406,1.4411,1.4397,1.4416,1.4427,1.442,1.4493,1.4474,1.4483,1.4507,1.4579,1.4583,1.4586,1.4604,1.4611,1.4616,0,0,0,0,0,0,1.4284,1.4309,1.4306,1.4355,1.4375,1.4398,1.4422,1.4418,1.4443,1.444,1.4445,1.4451,1.4492,1.4504,1.4482,1.4553,1.4534,1.4539,1.4544,1.4551,1.4556,1.4552,1.4466,0,0,0,0,0,1.4293,1.4323,1.4343,1.4384,1.4394,1.4407,1.4423,1.4425,1.4446,1.4455,1.4469,1.449,1.4516,1.4534,1.456,1.4608,1.4612,1.4628,1.4633,1.4637,1.4642,1.4665,1.4672,1.4599,1.4599,1.4599,0,0,1.4313,1.4331,1.4349,1.4388,1.4404,1.4433,1.4414,1.4446,1.4467,1.446,1.4499,1.451,1.4533,1.4577,1.4597,1.4587,1.4663,1.4641,1.4644,1.4647,1.4669,1.4676,1.4682,1.4601,1.4601,1.46,0,0,1.4364,1.4381,1.4416,1.4432,1.4457,1.4464,1.4472,1.4495,1.4502,1.4542,1.4536,1.4561,1.4608,1.4623,1.4638,1.4692,1.4686,1.47,1.4725,1.4748,1.4754,1.4759,1.4777,1.4783,1.4704,1.4704,1.4704,0,1.4386,1.443,1.4435,1.4467,1.4483,1.4477,1.4511,1.4527,1.4558,1.4569,1.4558,1.4615,1.463,1.4677,1.469,1.4702,1.471,1.4697,1.4753,1.4758,1.4763,1.478,1.4787,1.4706,1.4706,1.4705,1.4705,0,1.4454,1.4485,1.451,1.454,1.4559,1.4592,1.4601,1.4619,1.4619,1.4627,1.4666,1.4683,1.4711,1.4723,1.4723,1.4768,1.4762,1.4752,1.4732,1.4771,1.4787,1.4794,1.4708,1.4707,1.4707,1.4706,0,0,1.4519,1.455,1.4559,1.4571,1.4596,1.4619,1.4651,1.4679,1.4694,1.4715,1.4741,1.478,1.477,1.4786,1.4788,1.4808,1.4847,1.4795,1.4796,1.4803,1.4896,1.4902,1.491,1.4843,1.4844,1.4845,1.4893,0,1.4571,1.4628,1.4632,1.4682,1.4709,1.4703,1.473,1.4748,1.4755,1.4778,1.4787,1.4813,1.48,1.4809,1.4829,1.4838,1.4865,1.4835,1.4866,1.4867,1.4859,1.4918,1.4926,1.497,1.49,1.4901,1.4902,0,1.4641,1.4663,1.4716,1.4735,1.4747,1.4771,1.4795,1.4818,1.4837,1.4841,1.4858,1.4856,1.4887,1.4866,1.4907,1.4886,1.4899,1.4905,1.4907,1.4909,1.4886,1.4921,1.4985,1.4991,1.4912,1.4911,1.491,0,1.468,1.4724,1.4761,1.4772,1.4795,1.4812,1.4823,1.4841,1.4856,1.4877,1.4887,1.4911,1.4924,1.4942,1.4946,1.4931,1.4987,1.4967,1.499,1.499,1.5002,1.5001,1.5067,1.5011,1.5011,1.5011,1.5011,0,1.4738,1.477,1.4779,1.4801,1.4836,1.484,1.4874,1.4883,1.4898,1.4922,1.4918,1.4939,1.4944,1.4966,1.4969,1.5002,1.5008,1.5011,1.5011,1.5011,1.501,1.5019,1.5015,1.5013,1.5013,1.5012,1.5012,0,1.4788,1.4796,1.4835,1.4853,1.4859,1.4884,1.4899,1.492,1.4926,1.4955,1.4962,1.4972,1.4998,1.5003,1.5034,1.5036,1.5074,1.5072,1.5068,1.5067,1.5089,1.5087,1.5163,1.5172,1.5111,1.5112,1.5112,0,1.4824,1.4849,1.4869,1.4884,1.4895,1.492,1.4936,1.4939,1.4955,1.4977,1.4994,1.5019,1.504,1.508,1.509,1.5112,1.511,1.5135,1.5113,1.5111,1.5109,1.5107,1.5108,1.5139,1.514,1.514,1.5141,0,1.4886,1.4888,1.4911,1.4934,1.4952,1.4971,1.4989,1.5001,1.5006,1.5024,1.505,1.5066,1.5096,1.512,1.5142,1.5152,1.5147,1.5147,1.5153,1.5153,1.5149,1.515,1.5078,1.5145,1.5145,1.5145,1.5144,1.5144,1.493,1.495,1.4967,1.4992,1.5005,1.5021,1.5041,1.5049,1.5071,1.5096,1.5096,1.5124,1.514,1.5169,1.518,1.52,1.5193,1.5202,1.5204,1.5206,1.5207,1.5146,1.5205,1.5205,1.5204,1.5204,1.5204,0,1.4991,1.5001,1.5023,1.5047,1.5066,1.5059,1.5078,1.5094,1.5118,1.5134,1.5153,1.5181,1.5204,1.5215,1.5237,1.5251,1.5249,1.5257,1.5255,1.5257,1.5214,1.5206,1.5258,1.5258,1.5258,1.5258,1.5258,1.5258,1.5024,1.5058,1.5061,1.5101,1.511,1.5137,1.5148,1.5162,1.5174,1.5206,1.5225,1.5231,1.5244,1.5267,1.5287,1.5289,1.5297,1.5305,1.5306,1.5266,1.526,1.5255,1.5247,1.5307,1.5307,1.5347,1.5348,1.5348]}]]